Terminal Aerodrome Forecast
Issued by NWS

Home | Current Version | Previous Version | Graphics & Text | Print | Product List | Glossary On
Versions: 1 2 3 4 5 6 7 8 9 10 11 12 13 14 15 16 17 18 19 20 21
137
FTUS43 KABR 281241 AAA
TAFPIR
TAF AMD
KPIR 281241Z 2813/2912 03007KT P6SM OVC020
      TEMPO 2813/2816 BKN009
     FM290200 05007KT P6SM OVC025
     FM290800 VRB03KT P6SM OVC010=

USA.gov is the U.S. government's official web portal to all federal, state and local government web resources and services.